STARLINK-1398, 45699

Orbit data source: Space-Track

STARLINK-1398, 45699 is a payload satellite owned by SpaceX/Seattle (US) in LEO that was launched on Thu, 04 Jun 2020 UTC via an FALCON 9 launch vehicle from the Air Force Eastern Test Range (AFETR). Payload-class satellites include a variety of spacecraft equipped with specific instruments for various scientific and technological missions. These include communications satellites like Starlink; space stations such as the ISS; scientific satellites like the Hubble; Earth observation satellites from companies like Planet Labs, Umbra, and HawkEye 360; GPS; miniature CubeSats for education and research; and military/defense satellites.

Loading next visibility...
Identifier
45699, 2020-035AU
Orbit
LEO
Country
Flag of USUS
Related business
Manufacturer
SpaceX/Seattle
Mission
Partially operational Commercial Communications
Bus & Motor
STARLINK, Unknown motor
Mass
260 kg wet, ~248 kg dry
Launch date (UTC)
2020-06-04 (5 years ago)
Launch vehicle
FALCON 9
Launch site
Air Force Eastern Test Range (AFETR)
Object type
Payload
Rocket body
Debris
Shape & HBR
Box + 1 Pan, 4.4 m
Radar Cross Section
13.562 m², Large (>1 m²)

Expand to show TLE details & history
Last TLE update: 6 hours ago

TLE from 6 hours ago
0 STARLINK-1398
1 45699U 20035AU  25261.25011574  .00150005  00000-0  33409-2 0  9996
2 45699  53.0522  62.5805 0006129 140.1958  97.8173 15.42576516  5680
Epoch: 2025-09-18T06:00Z
TLE epoch observation values (Epoch: 2025-09-18T06:00:09.999Z)
Latitude
-42.91355°
Longitude
-160.81856°
Altitude
453.435 km
Speed
7.64 km/s
True Right ascension
19h 06m 33s
True Declination
-42° 44' 04"
Sunlit
Object was in daylight at epoch
Visualization orbit readout
Latitude
Unknown
Longitude
Unknown
Altitude
Unknown
Speed
Unknown
Apparent Right ascension
Unknown
Apparent Declination
Unknown
Sunlit
N/A
Visualization observer readout
Local Sidereal Time
04:50:12
Azimuth
Unknown
Elevation
Unknown
Doppler factor
Unknown
Orbital elements
Apogee altitude
442.962 km
Perigee altitude
434.606 km
Semi-major axis
6,816.921 km
Eccentricity
0.00061
Inclination
53.0522°
RAAN
62.5805°
Arg. of periapsis
140.1958°
True anomaly
97.88687°
Mean anomaly
97.8173°
Eccentric anomaly
97.85209°
Mean motion
3.85621 °/min
Orbital period
93.36 mins
BSTAR
0.0033409
Loading maneuver chart data...
Computing Atmospheric mass density...

Documentation

Showing up to 5 results
|